User: anonymous   Login
Location: Unspecified
(0.0000°N, 0.0000°E)
Time: 01:40:10
(UTC+00:00)
Language:

Tiangong 1 - Orbit

View from above orbital plane
View from above orbital plane
View from above satellite
View from above satellite

Ground track
Ground track

The orbit data is extracted from the following two-line orbital elements,

1 37820U 11053A   17326.38868309  .00075301  10351-4  21988-3 0  9995
2 37820  42.7550 303.4337 0018049 135.1968 351.6970 15.92221910353063
Epoch (UTC): 22 November 2017 09:19:42
Eccentricity: 0.0018049
inclination: 42.7550°
perigee height: 284 km
apogee height: 308 km
right ascension of ascending node: 303.4337°
argument of perigee: 135.1968°
revolutions per day: 15.92221910
mean anomaly at epoch: 351.6970°
orbit number at epoch: 35306

The dashed part of the orbit path shows where the satellite is in the earth's shadow,  

DLR